Baudette, MN

3:43 AM CDT on April 24, 2017 (GMT -0500)
Baudette International

Weather History for KBDE - April, 2013

Change the Weather History Date:

Wednesday, April 10, 2013

  Actual Average Record
Temperature  
Mean Temperature 26 °F -  
Max Temperature 39 °F 49 °F 77 °F (1955)
Min Temperature 14 °F 24 °F 0 °F (1962)
Degree Days  
Heating Degree Days 38    
Moisture  
Dew Point 14 °F    
Average Humidity 58    
Maximum Humidity 84    
Minimum Humidity 38    
Precipitation  
Precipitation 0.00 in - - ()
Sea Level Pressure  
Sea Level Pressure 30.28 in    
Wind  
Wind Speed 6 mph (NNE)    
Max Wind Speed 10 mph    
Max Gust Speed -    
Visibility 10 miles    
Events      
Averages and records for this station are not official NWS values.
T = Trace of Precipitation, MM = Missing Value Source: NWS Daily Summary

Daily Weather History Graph

Daily Weather History Graph

Search for Another Location

Airport or City:

Trip Planner

Search our weather history database for the weather conditions in past years. The results will help you decide how hot, cold, wet, or windy it might be!

Date:

Astronomy

Apr. 10, 2013 Rise Set
Actual Time 6:37 AM CDT 8:03 PM CDT
Civil Twilight 6:04 AM CDT 8:35 PM CDT
Nautical Twilight 5:24 AM CDT 9:15 PM CDT
Astronomical Twilight 4:42 AM CDT 9:58 PM CDT
Moon 6:31 AM CDT (4/10) 8:45 PM CDT (4/10)
Length of Visible Light 14h 31m
Length of Day
13h 25m
New Moon, 0% of the Moon is Illuminated
Apr 10
New Moon
Apr 18
First Quarter
Apr 25
Full
May 2
Last Quarter
May 9
New

Hourly Weather History & Observations

Time (CDT) Temp. Windchill Dew Point Humidity Pressure Visibility Wind Dir Wind Speed Gust Speed Precip Events Conditions
12:53 AM 21.9 °F 11.7 °F 12.9 °F 68% 30.35 in 10.0 mi NNW 9.2 mph - N/A   Clear
1:53 AM 19.0 °F 11.1 °F 12.0 °F 74% 30.36 in 10.0 mi NNW 5.8 mph - N/A   Clear
2:53 AM 19.9 °F 9.3 °F 12.0 °F 71% 30.35 in 10.0 mi NNW 9.2 mph - N/A   Clear
3:53 AM 18.0 °F 8.7 °F 12.0 °F 78% 30.39 in 10.0 mi NW 6.9 mph - N/A   Clear
4:53 AM 17.1 °F 6.6 °F 12.0 °F 81% 30.32 in 10.0 mi North 8.1 mph - N/A   Clear
5:53 AM 14.0 °F 8.2 °F 10.0 °F 84% 30.28 in 10.0 mi NNW 3.5 mph - N/A   Clear
6:53 AM 15.1 °F - 10.9 °F 84% 30.28 in 10.0 mi Calm Calm - N/A   Clear
7:53 AM 18.0 °F - 12.0 °F 78% 30.33 in 10.0 mi Calm Calm - N/A   Clear
8:53 AM 19.9 °F - 12.0 °F 71% 30.36 in 10.0 mi Calm Calm - N/A   Clear
9:53 AM 27.0 °F 21.6 °F 15.1 °F 61% 30.34 in 10.0 mi NNW 4.6 mph - N/A   Clear
10:53 AM 30.0 °F 26.5 °F 16.0 °F 56% 30.34 in 10.0 mi NNW 3.5 mph - N/A   Clear
11:53 AM 30.9 °F 24.3 °F 17.1 °F 57% 30.33 in 10.0 mi NW 6.9 mph - N/A   Clear
12:53 PM 32.0 °F 25.6 °F 19.0 °F 59% 30.30 in 10.0 mi NNW 6.9 mph - N/A   Clear
1:53 PM 37.0 °F 32.4 °F 16.0 °F 42% 30.27 in 10.0 mi NNE 5.8 mph - N/A   Clear
2:53 PM 37.9 °F 33.5 °F 15.1 °F 39% 30.27 in 10.0 mi NNE 5.8 mph - N/A   Clear
3:53 PM 39.0 °F 34.8 °F 15.1 °F 38% 30.25 in 10.0 mi ENE 5.8 mph - N/A   Clear
4:53 PM 39.0 °F 34.8 °F 16.0 °F 39% 30.22 in 10.0 mi ESE 5.8 mph - N/A   Clear
5:53 PM 39.0 °F 34.0 °F 16.0 °F 39% 30.21 in 10.0 mi East 6.9 mph - N/A   Clear
6:53 PM 39.9 °F 35.8 °F 16.0 °F 38% 30.20 in 10.0 mi ESE 5.8 mph - N/A   Clear
7:53 PM 37.0 °F 32.4 °F 17.1 °F 44% 30.17 in 10.0 mi ENE 5.8 mph - N/A   Clear
8:53 PM 35.1 °F 31.0 °F 15.1 °F 44% 30.20 in 10.0 mi ENE 4.6 mph - N/A   Clear
9:53 PM 32.0 °F 24.8 °F 15.1 °F 50% 30.17 in 10.0 mi NE 8.1 mph - N/A   Clear
10:53 PM 30.0 °F 21.1 °F 12.9 °F 49% 30.16 in 10.0 mi NE 10.4 mph - N/A   Clear
11:53 PM 28.9 °F 20.4 °F 12.0 °F 49% 30.15 in 10.0 mi ENE 9.2 mph - N/A   Clear